View from above orbital plane
|
View from above satellite
|
Ground track
|
The orbit data is extracted from the following two-line orbital elements,
1 22827U 93061E 21023.56713552 .00000014 00000-0 22666-4 0 9993
2 22827 98.8936 44.4141 0009701 48.5640 64.9615 14.31356181426093
Epoch (UTC): | 23 January 2021 13:36:40 |
Eccentricity: | 0.0009701 |
inclination: | 98.8936° |
perigee height: | 780 km |
apogee height: | 794 km |
right ascension of ascending node: | 44.4141° |
argument of perigee: | 48.5640° |
revolutions per day: | 14.31356181 |
mean anomaly at epoch: | 64.9615° |
orbit number at epoch: | 42609 |
The dashed part of the orbit path shows where the satellite is in the earth's shadow,
|
|